Date String (YYYY-MM-DD hh:mm:ss) UTC,Instrument flags,absolute air pressure of the measurement (hPa),sample flow rate (lpm),inlet stack bypass flow (lpm),air temperature of the measurement (°C),ambient temperature measured by the external sensor (°C),aerosol sample conditioner tube jacket temperature (°C),OPC LED temperature (°C),internal box temperature (°C),relative humidity of the measurement (%),span deviation,mass concentration of particles derived from Lorenz-Mie calculation of OPC scattering (μg/m³),mass concentration of particles derived from Lorenz-Mie calculation of OPC scattering (μg/m³),mass concentration of particles derived from Lorenz-Mie calculation of OPC scattering (μg/m³)
DateTimeUTC,F1_M11,P_M11,Q1_M11,Q2_M11,T1_M11,T2_M11,T3_M11,T4_M11,T5_M11,U1_M11,ZSPAN_M11,X0_M11,X2_M11,X1_M11
2024-02-26 14:00:00,SystemResetWarning,0820.1,4.99,000.00,020.6,019.9,000.0,028.9,022.2,20.2,0000.0,0003.93,0001.03,0000.53
2024-02-26 14:01:00,SystemResetWarning,0820.1,5.01,000.00,020.6,019.8,000.0,028.9,022.2,20.4,0000.0,0003.82,0001.02,0000.51
2024-02-26 14:02:00,SystemResetWarning,0820.2,5.01,000.00,020.6,019.8,000.0,028.8,022.2,20.6,0000.0,0003.85,0001.00,0000.50
2024-02-26 14:03:00,SystemResetWarning,0820.2,5.00,000.00,020.6,019.8,000.0,028.8,022.2,20.7,0000.0,0003.64,0000.94,0000.49
2024-02-26 14:04:00,SystemResetWarning,0820.2,4.99,000.00,020.6,019.8,000.0,028.8,022.2,20.8,0000.0,0004.39,0000.92,0000.48
2024-02-26 14:05:00,SystemResetWarning,0820.2,5.00,000.00,020.6,019.8,000.0,028.8,022.2,21.0,0000.0,0004.72,0000.93,0000.47
2024-02-26 14:06:00,SystemResetWarning,0820.3,5.00,000.00,020.5,019.8,000.0,028.8,022.2,21.2,0000.0,0004.78,0000.94,0000.47
2024-02-26 14:07:00,SystemResetWarning,0820.3,5.02,000.00,020.5,019.8,000.0,028.8,022.2,21.3,0000.0,0004.16,0000.94,0000.45
2024-02-26 14:08:00,SystemResetWarning,0820.4,5.00,000.00,020.5,019.8,000.0,028.8,022.2,21.4,0000.0,0003.62,0000.90,0000.43
2024-02-26 14:09:00,SystemResetWarning,0820.3,4.98,000.00,020.5,019.7,000.0,028.8,022.2,21.5,0000.0,0003.34,0000.86,0000.43
2024-02-26 14:10:00,SystemResetWarning,0820.4,4.99,000.00,020.5,019.7,000.0,028.8,022.1,21.5,0000.0,0003.44,0000.88,0000.44
2024-02-26 14:11:00,SystemResetWarning,0820.3,5.01,000.00,020.5,019.7,000.0,028.7,022.1,21.6,0000.0,0003.50,0000.88,0000.44
2024-02-26 14:12:00,SystemResetWarning,0820.3,5.01,000.00,020.5,019.7,000.0,028.7,022.1,21.7,0000.0,0003.68,0000.90,0000.45
2024-02-26 14:13:00,SystemResetWarning,0820.3,4.99,000.00,020.5,019.7,000.0,028.7,022.1,21.8,0000.0,0003.56,0000.89,0000.47
2024-02-26 14:14:00,SystemResetWarning,0820.3,4.99,000.00,020.5,019.7,000.0,028.7,022.1,21.8,0000.0,0003.56,0000.89,0000.48
2024-02-26 14:15:00,SystemResetWarning,0820.1,4.99,000.00,020.5,019.7,000.0,028.7,022.1,22.0,0000.0,0002.77,0000.90,0000.47
2024-02-26 14:16:00,SystemResetWarning,0820.2,5.02,000.00,020.4,019.7,000.0,028.7,022.1,22.1,0000.0,0002.56,0000.92,0000.48
2024-02-26 14:17:00,SystemResetWarning,0820.1,5.00,000.00,020.4,019.6,000.0,028.7,022.1,22.2,0000.0,0002.61,0000.91,0000.48
2024-02-26 14:18:00,SystemResetWarning,0820.1,5.00,000.00,020.4,019.6,000.0,028.7,022.1,22.2,0000.0,0002.32,0000.88,0000.49
2024-02-26 14:19:00,SystemResetWarning,0820.1,5.00,000.00,020.4,019.6,000.0,028.7,022.0,22.2,0000.0,0002.24,0000.88,0000.49
2024-02-26 14:20:00,SystemResetWarning,0820.0,4.99,000.00,020.4,019.6,000.0,028.7,022.0,22.3,0000.0,0002.47,0000.93,0000.49
2024-02-26 14:21:00,SystemResetWarning,0820.1,4.99,000.00,020.4,019.6,000.0,028.7,022.0,22.0,0000.0,0002.37,0000.89,0000.48
2024-02-26 14:22:00,SystemResetWarning,0820.0,5.00,000.00,020.4,019.6,000.0,028.7,022.0,22.0,0000.0,0002.27,0000.85,0000.47
2024-02-26 14:23:00,SystemResetWarning,0819.9,5.01,000.00,020.4,019.6,000.0,028.6,022.0,21.6,0000.0,0002.06,0000.83,0000.47
2024-02-26 14:24:00,SystemResetWarning,0820.1,5.00,000.00,020.4,019.6,000.0,028.6,022.0,21.1,0000.0,0002.07,0000.83,0000.48
2024-02-26 14:25:00,SystemResetWarning,0820.0,4.99,000.00,020.4,019.6,000.0,028.6,022.0,21.4,0000.0,0002.24,0000.88,0000.48
2024-02-26 14:26:00,SystemResetWarning,0819.9,5.00,000.00,020.4,019.6,000.0,028.6,022.0,21.1,0000.0,0002.12,0000.86,0000.47
2024-02-26 14:27:00,SystemResetWarning,0820.2,5.00,000.00,020.3,019.6,000.0,028.6,022.0,21.1,0000.0,0001.89,0000.81,0000.47
2024-02-26 14:28:00,SystemResetWarning,0820.0,5.00,000.00,020.3,019.6,000.0,028.6,022.0,21.2,0000.0,0001.72,0000.79,0000.47
2024-02-26 14:29:00,SystemResetWarning,0820.0,4.99,000.00,020.3,019.6,000.0,028.6,022.0,21.4,0000.0,0002.09,0000.82,0000.47
2024-02-26 14:30:00,SystemResetWarning,0820.0,4.99,000.00,020.3,019.6,000.0,028.6,022.0,21.3,0000.0,0002.79,0000.84,0000.48
2024-02-26 14:31:00,SystemResetWarning,0819.9,5.01,000.00,020.3,019.6,000.0,028.6,022.0,21.3,0000.0,0002.58,0000.81,0000.49
2024-02-26 14:32:00,SystemResetWarning,0820.3,5.01,000.00,020.3,019.6,000.0,028.6,022.0,21.4,0000.0,0002.67,0000.84,0000.50
2024-02-26 14:33:00,SystemResetWarning,0820.1,5.00,000.00,020.3,019.6,000.0,028.6,022.0,21.0,0000.0,0002.85,0000.90,0000.51
2024-02-26 14:34:00,SystemResetWarning,0820.0,5.01,000.00,020.3,019.6,000.0,028.6,022.0,21.2,0000.0,0003.18,0000.92,0000.51
2024-02-26 14:35:00,SystemResetWarning,0820.1,5.01,000.00,020.3,019.6,000.0,028.6,022.0,20.9,0000.0,0003.77,0000.92,0000.51
2024-02-26 14:36:00,SystemResetWarning,0820.0,4.99,000.00,020.3,019.6,000.0,028.5,022.0,20.4,0000.0,0003.80,0000.91,0000.50
2024-02-26 14:37:00,SystemResetWarning,0820.0,4.99,000.00,020.3,019.6,000.0,028.5,022.0,20.2,0000.0,0003.85,0000.94,0000.50
2024-02-26 14:38:00,SystemResetWarning,0820.0,5.00,000.00,020.3,019.6,000.0,028.5,022.0,20.0,0000.0,0004.06,0001.01,0000.51
2024-02-26 14:39:00,SystemResetWarning,0820.1,5.01,000.00,020.3,019.6,000.0,028.5,022.0,19.5,0000.0,0004.21,0001.06,0000.51
2024-02-26 14:40:00,SystemResetWarning,0820.0,5.01,000.00,020.3,019.6,000.0,028.5,022.0,19.3,0000.0,0004.10,0001.09,0000.51
2024-02-26 14:41:00,SystemResetWarning,0820.0,5.00,000.00,020.3,019.6,000.0,028.5,022.0,18.9,0000.0,0003.28,0001.06,0000.50
2024-02-26 14:42:00,SystemResetWarning,0819.9,5.00,000.00,020.3,019.6,000.0,028.5,022.0,18.7,0000.0,0003.30,0001.07,0000.50
2024-02-26 14:43:00,SystemResetWarning,0820.0,4.99,000.00,020.3,019.6,000.0,028.5,022.0,18.7,0000.0,0003.36,0001.08,0000.49
2024-02-26 14:44:00,SystemResetWarning,0820.0,5.01,000.00,020.3,019.6,000.0,028.5,022.0,18.5,0000.0,0003.24,0001.06,0000.48
2024-02-26 14:45:00,SystemResetWarning,0820.0,5.00,000.00,020.3,019.6,000.0,028.5,022.0,19.2,0000.0,0003.31,0001.09,0000.48
2024-02-26 14:46:00,SystemResetWarning,0820.0,5.00,000.00,020.3,019.6,000.0,028.5,022.0,19.6,0000.0,0003.29,0001.11,0000.48
2024-02-26 14:47:00,SystemResetWarning,0820.0,5.00,000.00,020.3,019.6,000.0,028.5,022.0,19.4,0000.0,0003.40,0001.15,0000.48
2024-02-26 14:48:00,SystemResetWarning,0820.0,5.01,000.00,020.3,019.6,000.0,028.5,022.0,19.3,0000.0,0003.38,0001.13,0000.48
2024-02-26 14:49:00,SystemResetWarning,0819.9,5.01,000.00,020.3,019.6,000.0,028.5,022.0,19.4,0000.0,0003.29,0001.10,0000.47
2024-02-26 14:50:00,SystemResetWarning,0820.0,4.99,000.00,020.3,019.6,000.0,028.5,022.0,19.2,0000.0,0003.36,0001.08,0000.47
2024-02-26 14:51:00,SystemResetWarning,0819.7,5.00,000.00,020.3,019.6,000.0,028.5,022.0,19.3,0000.0,0004.44,0001.09,0000.48
2024-02-26 14:52:00,SystemResetWarning,0820.0,5.00,000.00,020.3,019.6,000.0,028.5,022.0,19.0,0000.0,0004.64,0001.18,0000.49
2024-02-26 14:53:00,SystemResetWarning,0819.8,5.00,000.00,020.3,019.6,000.0,028.5,022.0,19.2,0000.0,0005.06,0001.24,0000.50
2024-02-26 14:54:00,SystemResetWarning,0819.8,5.00,000.00,020.3,019.6,000.0,028.5,022.0,19.4,0000.0,0005.13,0001.27,0000.51
2024-02-26 14:55:00,SystemResetWarning,0819.9,5.00,000.00,020.3,019.6,000.0,028.5,022.0,19.6,0000.0,0005.12,0001.25,0000.51
2024-02-26 14:56:00,SystemResetWarning,0819.8,5.01,000.00,020.3,019.6,000.0,028.5,022.0,19.8,0000.0,0004.96,0001.24,0000.51
2024-02-26 14:57:00,SystemResetWarning,0819.9,5.01,000.00,020.3,019.6,000.0,028.5,022.0,19.6,0000.0,0004.24,0001.20,0000.51
2024-02-26 14:58:00,SystemResetWarning,0820.0,4.99,000.00,020.3,019.6,000.0,028.5,022.0,19.5,0000.0,0004.11,0001.16,0000.51
2024-02-26 14:59:00,SystemResetWarning,0819.7,5.00,000.00,020.3,019.6,000.0,028.5,022.0,19.3,0000.0,0004.29,0001.18,0000.51
